KLM1199 EGLL-LGAV

Flight info

Callsign KLM1199
Flight time N/A
Altitude 39000
Route DET L6 DVR UL9 KONAN DCT KOK DCT SISGA DCT KOMOB DCT BANUX DCT BABEG DCT KUMOM DCT NIPEL DCT ABISO DCT NEMEK DCT ELTIB DCT PINDO DCT PIKOS UL607 XORKI
Aircraft B77W/H-SDE1E2E3FGHIJ2J3J4J5M1RWXY/LB1D1

Departure

Time 2026-05-05 23:31
Airport London Heathrow Airport (EGLL)

Arrival

Time N/A
Airport Athens Eleftherios Venizelos International Airport (LGAV)
Time Latitude Longitude Altitude Speed Heading
2026-05-05 23:13 51.46194 -0.47389 91 ft 0 kts 243°
2026-05-05 23:17 51.46202 -0.47364 93 ft 3 kts 254°
2026-05-05 23:17 51.46203 -0.47332 92 ft 3 kts 291°
2026-05-05 23:18 51.46194 -0.47304 93 ft 3 kts 312°
2026-05-05 23:18 51.46178 -0.47282 92 ft 3 kts 326°
2026-05-05 23:18 51.46160 -0.47268 93 ft 3 kts 354°
2026-05-05 23:18 51.46156 -0.47267 94 ft 0 kts 357°
2026-05-05 23:21 51.46188 -0.47270 93 ft 8 kts 357°
2026-05-05 23:21 51.46247 -0.47273 94 ft 8 kts 358°
2026-05-05 23:21 51.46302 -0.47306 94 ft 9 kts 321°
2026-05-05 23:22 51.46335 -0.47403 92 ft 11 kts 284°
2026-05-05 23:22 51.46340 -0.47540 91 ft 13 kts 269°
2026-05-05 23:22 51.46318 -0.47675 95 ft 13 kts 246°
2026-05-05 23:22 51.46279 -0.47800 94 ft 13 kts 242°
2026-05-05 23:23 51.46252 -0.47938 91 ft 14 kts 265°
2026-05-05 23:23 51.46251 -0.48089 91 ft 14 kts 271°
2026-05-05 23:23 51.46253 -0.48258 89 ft 16 kts 271°
2026-05-05 23:23 51.46251 -0.48432 89 ft 14 kts 269°
2026-05-05 23:24 51.46258 -0.48583 92 ft 14 kts 282°
2026-05-05 23:24 51.46288 -0.48677 90 ft 0 kts 312°
2026-05-05 23:29 51.46289 -0.48678 90 ft 2 kts 312°
2026-05-05 23:29 51.46382 -0.48749 92 ft 20 kts 355°
2026-05-05 23:29 51.46477 -0.48669 94 ft 15 kts 86°
2026-05-05 23:30 51.46478 -0.48633 92 ft 0 kts 89°
2026-05-05 23:30 51.46479 -0.48504 91 ft 42 kts 89°
2026-05-05 23:31 51.46486 -0.47579 89 ft 122 kts 90°
2026-05-05 23:31 51.46499 -0.45874 107 ft 180 kts 90°
2026-05-05 23:31 51.46457 -0.43794 637 ft 189 kts 90°
2026-05-05 23:31 51.46347 -0.41766 1633 ft 179 kts 97°
2026-05-05 23:32 51.45817 -0.39911 2284 ft 194 kts 133°
2026-05-05 23:32 51.44731 -0.38433 2500 ft 214 kts 125°
2026-05-05 23:32 51.44188 -0.36131 2755 ft 231 kts 99°
2026-05-05 23:32 51.43798 -0.33559 3343 ft 244 kts 104°
2026-05-05 23:33 51.43282 -0.30929 4031 ft 256 kts 106°
2026-05-05 23:33 51.42706 -0.28167 4724 ft 266 kts 104°
2026-05-05 23:33 51.42275 -0.25261 5487 ft 268 kts 99°
2026-05-05 23:33 51.41907 -0.22289 5984 ft 274 kts 100°
2026-05-05 23:34 51.41516 -0.19260 5999 ft 282 kts 101°
2026-05-05 23:34 51.41103 -0.16173 6003 ft 282 kts 101°
2026-05-05 23:34 51.40688 -0.13122 6003 ft 279 kts 101°
2026-05-05 23:34 51.40273 -0.10111 5996 ft 276 kts 101°
2026-05-05 23:35 51.39860 -0.07120 6000 ft 274 kts 101°
2026-05-05 23:35 51.39448 -0.04138 6016 ft 276 kts 101°
2026-05-05 23:35 51.39031 -0.01120 6000 ft 278 kts 101°
2026-05-05 23:35 51.38610 0.01910 6009 ft 279 kts 101°
2026-05-05 23:36 51.38185 0.04951 5998 ft 280 kts 101°
2026-05-05 23:36 51.37759 0.07991 5999 ft 279 kts 101°
2026-05-05 23:36 51.37336 0.11024 5997 ft 279 kts 101°
2026-05-05 23:36 51.36912 0.14040 6003 ft 277 kts 101°
2026-05-05 23:37 51.36492 0.17022 5994 ft 273 kts 101°
2026-05-05 23:37 51.36079 0.19958 5997 ft 273 kts 101°
2026-05-05 23:37 51.35661 0.22917 6003 ft 273 kts 101°
2026-05-05 23:37 51.35242 0.25882 6004 ft 273 kts 101°
2026-05-05 23:38 51.34821 0.28851 5998 ft 273 kts 101°
2026-05-05 23:38 51.34400 0.31813 6000 ft 274 kts 101°
2026-05-05 23:38 51.33978 0.34789 6086 ft 275 kts 100°
2026-05-05 23:38 51.33553 0.37774 6103 ft 275 kts 101°
2026-05-05 23:39 51.33128 0.40761 6091 ft 275 kts 101°
2026-05-05 23:39 51.32702 0.43733 6109 ft 274 kts 101°
2026-05-05 23:39 51.32274 0.46715 6109 ft 275 kts 101°
2026-05-05 23:39 51.31847 0.49690 6101 ft 275 kts 101°
2026-05-05 23:40 51.31418 0.52665 6095 ft 275 kts 101°
2026-05-05 23:40 51.30987 0.55642 6104 ft 274 kts 101°
2026-05-05 23:40 51.30561 0.58581 6101 ft 275 kts 101°
2026-05-05 23:40 51.30101 0.61540 6091 ft 275 kts 103°
2026-05-05 23:41 51.29571 0.64484 6075 ft 275 kts 104°
2026-05-05 23:41 51.29029 0.67407 6076 ft 274 kts 104°
2026-05-05 23:41 51.28489 0.70320 6073 ft 274 kts 104°
2026-05-05 23:41 51.27947 0.73246 6051 ft 274 kts 104°
2026-05-05 23:42 51.27409 0.76159 6053 ft 273 kts 104°
2026-05-05 23:42 51.26871 0.79077 6044 ft 273 kts 104°
2026-05-05 23:42 51.26335 0.81988 6029 ft 274 kts 104°
2026-05-05 23:42 51.25798 0.84907 6017 ft 274 kts 103°
2026-05-05 23:43 51.25262 0.87822 6094 ft 275 kts 104°
2026-05-05 23:43 51.24720 0.90760 6789 ft 278 kts 104°
2026-05-05 23:43 51.24172 0.93732 7660 ft 279 kts 104°
2026-05-05 23:43 51.23627 0.96680 8496 ft 283 kts 104°
2026-05-05 23:44 51.23063 0.99722 9294 ft 288 kts 104°
2026-05-05 23:44 51.22494 1.02799 10134 ft 290 kts 105°
2026-05-05 23:44 51.21908 1.05958 10654 ft 307 kts 105°
2026-05-05 23:44 51.21273 1.09383 10858 ft 335 kts 105°
2026-05-05 23:45 51.20583 1.13092 11081 ft 362 kts 105°
2026-05-05 23:45 51.19848 1.17025 11718 ft 375 kts 105°
2026-05-05 23:45 51.19093 1.21053 12633 ft 383 kts 105°
2026-05-05 23:45 51.18323 1.25156 13664 ft 388 kts 106°
2026-05-05 23:46 51.17546 1.29290 14607 ft 392 kts 106°
2026-05-05 23:46 51.16767 1.33487 15525 ft 397 kts 104°
2026-05-05 23:46 51.16191 1.37814 16442 ft 402 kts 97°
2026-05-05 23:46 51.15921 1.42263 17340 ft 406 kts 94°
2026-05-05 23:47 51.15721 1.46787 18204 ft 412 kts 93°
2026-05-05 23:47 51.15522 1.51374 18996 ft 417 kts 94°
2026-05-05 23:47 51.15315 1.56005 19784 ft 421 kts 94°
2026-05-05 23:47 51.15098 1.60632 20540 ft 426 kts 94°
2026-05-05 23:48 51.14869 1.65373 21280 ft 431 kts 95°
2026-05-05 23:48 51.14632 1.70161 21983 ft 437 kts 95°
2026-05-05 23:48 51.14388 1.75014 22687 ft 442 kts 95°
2026-05-05 23:48 51.14138 1.79933 23371 ft 448 kts 95°
2026-05-05 23:49 51.13882 1.84924 23938 ft 454 kts 95°
2026-05-05 23:49 51.13624 1.89937 24574 ft 456 kts 96°
2026-05-05 23:49 51.13362 1.94991 25231 ft 458 kts 96°
2026-05-05 23:49 51.13097 2.00060 25830 ft 462 kts 96°
2026-05-05 23:50 51.12826 2.05188 26371 ft 466 kts 96°
2026-05-05 23:50 51.12552 2.10339 26942 ft 469 kts 96°
2026-05-05 23:50 51.12274 2.15524 27527 ft 471 kts 97°
2026-05-05 23:50 51.11992 2.20731 28102 ft 473 kts 97°
2026-05-05 23:51 51.11708 2.25959 28611 ft 476 kts 97°
2026-05-05 23:51 51.11419 2.31224 29083 ft 479 kts 97°
2026-05-05 23:51 51.11126 2.36529 29555 ft 481 kts 97°
2026-05-05 23:51 51.10831 2.41829 30085 ft 480 kts 97°
2026-05-05 23:52 51.10535 2.47114 30604 ft 479 kts 97°
2026-05-05 23:52 51.10241 2.52322 31123 ft 477 kts 97°
2026-05-05 23:52 51.09933 2.57562 31635 ft 475 kts 98°
2026-05-05 23:52 51.09355 2.62707 32110 ft 472 kts 106°
2026-05-05 23:53 51.08392 2.67755 32587 ft 469 kts 111°
2026-05-05 23:53 51.07173 2.72477 33048 ft 467 kts 118°
2026-05-05 23:53 51.05677 2.77040 33506 ft 465 kts 120°
2026-05-05 23:53 51.04144 2.81571 33948 ft 464 kts 120°
2026-05-05 23:54 51.02608 2.86088 34259 ft 465 kts 120°
2026-05-05 23:54 51.01072 2.90615 34533 ft 467 kts 120°
2026-05-05 23:54 50.99538 2.95160 34815 ft 468 kts 120°
2026-05-05 23:54 50.98006 2.99717 35101 ft 468 kts 120°
2026-05-05 23:55 50.96472 3.04290 35376 ft 469 kts 120°
2026-05-05 23:55 50.94940 3.08857 35632 ft 470 kts 120°
2026-05-05 23:55 50.93402 3.13438 35899 ft 471 kts 120°
2026-05-05 23:55 50.91857 3.18031 36185 ft 472 kts 120°
2026-05-05 23:56 50.90308 3.22626 36433 ft 473 kts 120°
2026-05-05 23:56 50.89282 3.25663 36596 ft 473 kts 120°
2026-05-05 23:56 50.87722 3.30276 36851 ft 474 kts 120°
2026-05-05 23:56 50.86160 3.34882 37085 ft 475 kts 120°
2026-05-05 23:57 50.84596 3.39488 37314 ft 476 kts 120°
2026-05-05 23:57 50.83024 3.44111 37532 ft 477 kts 120°
2026-05-05 23:57 50.81442 3.48751 37765 ft 478 kts 120°
2026-05-05 23:57 50.79865 3.53370 38076 ft 477 kts 120°
2026-05-05 23:58 50.78288 3.57983 38401 ft 476 kts 120°
2026-05-05 23:58 50.76710 3.62588 38656 ft 476 kts 120°
2026-05-05 23:58 50.75131 3.67188 38790 ft 478 kts 120°
2026-05-05 23:58 50.73537 3.71820 38818 ft 481 kts 120°
2026-05-05 23:59 50.70358 3.81038 38858 ft 481 kts 120°
2026-05-05 23:59 50.67168 3.90257 38862 ft 475 kts 120°
2026-05-06 00:00 50.64000 3.99384 38857 ft 472 kts 121°
2026-05-06 00:00 50.60846 4.08425 38858 ft 471 kts 121°
2026-05-06 00:01 50.57693 4.17381 38855 ft 470 kts 121°
2026-05-06 00:01 50.54512 4.26379 38864 ft 471 kts 121°
2026-05-06 00:02 50.51319 4.35387 38859 ft 472 kts 121°
2026-05-06 00:02 50.48118 4.44392 38860 ft 473 kts 121°
2026-05-06 00:03 50.44894 4.53432 38864 ft 474 kts 121°
2026-05-06 00:03 50.41679 4.62414 38853 ft 475 kts 121°
2026-05-06 00:04 50.38433 4.71450 38846 ft 476 kts 121°
2026-05-06 00:04 50.35174 4.80492 38844 ft 476 kts 121°
2026-05-06 00:05 50.30273 4.94028 38828 ft 476 kts 121°
2026-05-06 00:06 50.26998 5.03034 38824 ft 476 kts 122°
2026-05-06 00:06 50.23737 5.11971 38817 ft 476 kts 122°
2026-05-06 00:07 50.20455 5.20938 38812 ft 476 kts 122°
2026-05-06 00:07 50.17167 5.29892 38809 ft 475 kts 122°
2026-05-06 00:08 50.13918 5.38892 38804 ft 476 kts 118°
2026-05-06 00:08 50.11130 5.48250 38805 ft 476 kts 116°
2026-05-06 00:09 50.08390 5.57653 38795 ft 477 kts 116°
2026-05-06 00:09 50.05627 5.67044 38799 ft 476 kts 117°
2026-05-06 00:10 50.02846 5.76395 38793 ft 477 kts 117°
2026-05-06 00:10 50.00059 5.85707 38786 ft 477 kts 117°
2026-05-06 00:11 49.97252 5.95046 38785 ft 477 kts 117°
2026-05-06 00:11 49.94430 6.04405 38789 ft 477 kts 117°
2026-05-06 00:12 49.91608 6.13733 38790 ft 477 kts 117°
2026-05-06 00:12 49.88795 6.22992 38778 ft 477 kts 117°
2026-05-06 00:13 49.85961 6.32287 38783 ft 476 kts 118°
2026-05-06 00:13 49.83121 6.41566 38766 ft 476 kts 118°
2026-05-06 00:14 49.80274 6.50833 38783 ft 475 kts 118°
2026-05-06 00:14 49.77428 6.60061 38777 ft 475 kts 118°
2026-05-06 00:15 49.74579 6.69264 38780 ft 474 kts 118°
2026-05-06 00:15 49.71726 6.78449 38777 ft 473 kts 118°
2026-05-06 00:16 49.68871 6.87602 38773 ft 473 kts 118°
2026-05-06 00:16 49.66011 6.96740 38776 ft 472 kts 118°
2026-05-06 00:17 49.63163 7.05804 38780 ft 472 kts 118°
2026-05-06 00:17 49.60277 7.14955 38785 ft 471 kts 118°
2026-05-06 00:18 49.57417 7.23992 38790 ft 471 kts 118°
2026-05-06 00:18 49.54537 7.33060 38799 ft 472 kts 118°
2026-05-06 00:19 49.51644 7.42135 38803 ft 472 kts 119°
2026-05-06 00:19 49.48741 7.51207 38809 ft 473 kts 119°
2026-05-06 00:20 49.45822 7.60297 38805 ft 474 kts 119°
2026-05-06 00:20 49.42893 7.69388 38804 ft 474 kts 119°
2026-05-06 00:21 49.39954 7.78474 38809 ft 475 kts 119°
2026-05-06 00:21 49.37006 7.87556 38803 ft 476 kts 119°
2026-05-06 00:22 49.34046 7.96641 38805 ft 476 kts 119°
2026-05-06 00:22 49.31080 8.05715 38810 ft 476 kts 119°
2026-05-06 00:23 49.28106 8.14776 38815 ft 476 kts 119°
2026-05-06 00:23 49.25125 8.23832 38819 ft 476 kts 120°
2026-05-06 00:24 49.22158 8.32808 38816 ft 475 kts 120°
2026-05-06 00:24 49.19152 8.41873 38817 ft 475 kts 120°
2026-05-06 00:25 49.16156 8.50875 38822 ft 475 kts 120°
2026-05-06 00:25 49.13158 8.59860 38818 ft 474 kts 120°
2026-05-06 00:26 49.10057 8.68732 38823 ft 472 kts 125°
2026-05-06 00:26 49.06461 8.77093 38826 ft 471 kts 127°
2026-05-06 00:27 49.02811 8.85409 38826 ft 472 kts 127°
2026-05-06 00:27 48.99176 8.93743 38828 ft 473 kts 127°
2026-05-06 00:28 48.95545 9.02100 38837 ft 473 kts 127°
2026-05-06 00:28 48.91911 9.10445 38842 ft 473 kts 127°
2026-05-06 00:29 48.88297 9.18720 38850 ft 473 kts 127°
2026-05-06 00:29 48.84650 9.27038 38853 ft 473 kts 127°
2026-05-06 00:30 48.80995 9.35350 38851 ft 473 kts 127°
2026-05-06 00:30 48.77330 9.43660 38857 ft 473 kts 127°
2026-05-06 00:31 48.73665 9.51942 38851 ft 473 kts 127°
2026-05-06 00:31 48.69996 9.60214 38846 ft 473 kts 127°
2026-05-06 00:32 48.66367 9.68521 38849 ft 474 kts 125°
2026-05-06 00:32 48.63004 9.77036 38859 ft 474 kts 124°
2026-05-06 00:33 48.59656 9.85640 38855 ft 474 kts 124°
2026-05-06 00:33 48.56295 9.94213 38856 ft 474 kts 124°
2026-05-06 00:34 48.52916 10.02760 38858 ft 474 kts 124°
2026-05-06 00:34 48.49529 10.11288 38867 ft 473 kts 125°
2026-05-06 00:35 48.46162 10.19736 38862 ft 473 kts 125°
2026-05-06 00:35 48.42774 10.28214 38863 ft 472 kts 125°
2026-05-06 00:36 48.39849 10.35512 38865 ft 472 kts 125°
2026-05-06 00:36 48.36448 10.43971 38867 ft 472 kts 125°
2026-05-06 00:37 48.33071 10.52345 38874 ft 471 kts 125°
2026-05-06 00:37 48.30215 10.59407 38877 ft 472 kts 125°
2026-05-06 00:38 48.26249 10.69181 38874 ft 472 kts 126°
2026-05-06 00:38 48.23384 10.76222 38891 ft 472 kts 126°
2026-05-06 00:39 48.19975 10.84574 38885 ft 472 kts 126°
2026-05-06 00:39 48.16540 10.92966 38885 ft 472 kts 126°
2026-05-06 00:40 48.13100 11.01341 38882 ft 472 kts 126°
2026-05-06 00:40 48.09655 11.09705 38881 ft 472 kts 126°
2026-05-06 00:41 48.06207 11.18049 38878 ft 472 kts 126°
2026-05-06 00:41 48.02746 11.26398 38883 ft 472 kts 126°
2026-05-06 00:42 47.99286 11.34720 38880 ft 471 kts 126°
2026-05-06 00:42 47.95822 11.43026 38883 ft 471 kts 126°
2026-05-06 00:43 47.92350 11.51324 38885 ft 471 kts 126°
2026-05-06 00:43 47.88896 11.59555 38888 ft 471 kts 127°
2026-05-06 00:44 47.85418 11.67820 38887 ft 471 kts 127°
2026-05-06 00:44 47.81936 11.76067 38889 ft 470 kts 127°
2026-05-06 00:45 47.78450 11.84299 38884 ft 470 kts 127°
2026-05-06 00:45 47.74960 11.92515 38885 ft 469 kts 127°
2026-05-06 00:46 47.71468 12.00715 38874 ft 469 kts 127°
2026-05-06 00:46 47.67981 12.08875 38888 ft 468 kts 127°
2026-05-06 00:47 47.64482 12.17037 38872 ft 468 kts 127°
2026-05-06 00:47 47.61008 12.25123 38880 ft 468 kts 127°
2026-05-06 00:48 47.57499 12.33266 38868 ft 468 kts 127°
2026-05-06 00:48 47.53618 12.40891 38890 ft 459 kts 137°
2026-05-06 00:49 47.49256 12.47791 38858 ft 459 kts 137°
2026-05-06 00:49 47.44889 12.54653 38887 ft 458 kts 137°
2026-05-06 00:50 47.40545 12.61526 38890 ft 457 kts 137°
2026-05-06 00:50 47.36211 12.68401 38899 ft 457 kts 137°
2026-05-06 00:51 47.31878 12.75261 38902 ft 457 kts 137°
2026-05-06 00:51 47.27535 12.82120 38905 ft 458 kts 137°
2026-05-06 00:52 47.23178 12.88980 38927 ft 459 kts 137°
2026-05-06 00:52 47.18831 12.95805 38922 ft 460 kts 137°
2026-05-06 00:53 47.14446 13.02674 38916 ft 461 kts 137°
2026-05-06 00:53 47.10053 13.09539 38923 ft 460 kts 138°
2026-05-06 00:54 47.05674 13.16363 38934 ft 459 kts 138°
2026-05-06 00:54 47.01289 13.23181 38940 ft 460 kts 138°
2026-05-06 00:55 46.96924 13.29948 38950 ft 460 kts 138°
2026-05-06 00:55 46.92489 13.36804 38948 ft 461 kts 138°
2026-05-06 00:56 46.88066 13.43627 38962 ft 462 kts 138°
2026-05-06 00:56 46.83657 13.50410 38945 ft 463 kts 138°
2026-05-06 00:57 46.79217 13.57224 38950 ft 463 kts 139°
2026-05-06 00:57 46.74775 13.64025 38946 ft 462 kts 139°
2026-05-06 00:58 46.70333 13.70807 38951 ft 463 kts 139°
2026-05-06 00:58 46.65863 13.77613 38954 ft 466 kts 139°
2026-05-06 00:59 46.61367 13.84442 38942 ft 467 kts 139°
2026-05-06 00:59 46.56865 13.91266 38953 ft 469 kts 139°
2026-05-06 01:00 46.52369 13.98065 38916 ft 469 kts 139°
2026-05-06 01:00 46.47835 14.04881 38942 ft 467 kts 140°
2026-05-06 01:01 46.43170 14.11477 38955 ft 470 kts 142°
2026-05-06 01:01 46.38432 14.18062 38969 ft 474 kts 141°
2026-05-06 01:02 46.33664 14.24737 38958 ft 478 kts 141°
2026-05-06 01:02 46.28881 14.31449 38973 ft 480 kts 141°
2026-05-06 01:03 46.24063 14.38183 38960 ft 482 kts 141°
2026-05-06 01:03 46.19240 14.44923 38966 ft 483 kts 141°
2026-05-06 01:04 46.14415 14.51657 38962 ft 482 kts 141°
2026-05-06 01:04 46.09593 14.58372 38961 ft 481 kts 141°
2026-05-06 01:05 46.04782 14.65052 38960 ft 480 kts 141°
2026-05-06 01:05 45.99971 14.71712 38957 ft 479 kts 141°
2026-05-06 01:06 45.95166 14.78346 38969 ft 479 kts 140°
2026-05-06 01:06 45.90363 14.84963 38958 ft 478 kts 140°
2026-05-06 01:07 45.85592 14.91519 38963 ft 477 kts 140°
2026-05-06 01:07 45.80806 14.98080 38956 ft 476 kts 140°
2026-05-06 01:08 45.76021 15.04622 38957 ft 474 kts 140°
2026-05-06 01:08 45.71241 15.11141 38956 ft 473 kts 140°
2026-05-06 01:09 45.66472 15.17630 38961 ft 473 kts 140°
2026-05-06 01:09 45.61702 15.24107 38962 ft 473 kts 140°
2026-05-06 01:10 45.56930 15.30563 38958 ft 472 kts 140°
2026-05-06 01:10 45.52034 15.36712 38962 ft 471 kts 143°
2026-05-06 01:11 45.47020 15.42741 38967 ft 472 kts 143°
2026-05-06 01:11 45.42015 15.48786 38967 ft 473 kts 143°
2026-05-06 01:12 45.37004 15.54883 38980 ft 474 kts 143°
2026-05-06 01:12 45.31993 15.60985 38977 ft 475 kts 142°
2026-05-06 01:13 45.26961 15.67101 38972 ft 476 kts 142°
2026-05-06 01:13 45.21951 15.73172 38977 ft 477 kts 142°
2026-05-06 01:14 45.14371 15.82327 38970 ft 478 kts 143°
2026-05-06 01:14 45.09298 15.88436 38975 ft 479 kts 143°
2026-05-06 01:15 45.04217 15.94540 38978 ft 479 kts 143°
2026-05-06 01:15 44.99131 16.00635 38972 ft 480 kts 143°
2026-05-06 01:16 44.94024 16.06740 38976 ft 481 kts 143°
2026-05-06 01:16 44.88919 16.12828 38980 ft 481 kts 143°
2026-05-06 01:17 44.83828 16.18885 38983 ft 482 kts 143°
2026-05-06 01:17 44.78698 16.24974 38988 ft 483 kts 143°
2026-05-06 01:18 44.73556 16.31062 38993 ft 483 kts 143°
2026-05-06 01:18 44.68404 16.37148 38992 ft 484 kts 143°
2026-05-06 01:19 44.63233 16.43242 38995 ft 484 kts 143°
2026-05-06 01:19 44.58071 16.49310 38997 ft 484 kts 143°
2026-05-06 01:20 44.52942 16.55324 39005 ft 484 kts 143°
2026-05-06 01:20 44.47773 16.61373 39013 ft 483 kts 143°
2026-05-06 01:21 44.42608 16.67402 39017 ft 483 kts 143°
2026-05-06 01:21 44.37443 16.73418 39032 ft 483 kts 143°
2026-05-06 01:22 44.32270 16.79429 39023 ft 484 kts 143°
2026-05-06 01:22 44.27975 16.84421 39040 ft 484 kts 143°
2026-05-06 01:23 44.22814 16.90468 39046 ft 484 kts 142°
2026-05-06 01:23 44.17656 16.96513 39059 ft 484 kts 142°
2026-05-06 01:24 44.12485 17.02554 39058 ft 485 kts 142°
2026-05-06 01:24 44.07310 17.08581 39061 ft 485 kts 142°
2026-05-06 01:25 44.02127 17.14601 39060 ft 485 kts 142°
2026-05-06 01:25 43.96969 17.20578 39063 ft 485 kts 142°
2026-05-06 01:26 43.91771 17.26587 39072 ft 485 kts 142°
2026-05-06 01:26 43.86574 17.32580 39063 ft 485 kts 142°
2026-05-06 01:27 43.81382 17.38555 39070 ft 485 kts 142°
2026-05-06 01:27 43.76187 17.44520 39068 ft 485 kts 142°
2026-05-06 01:28 43.70982 17.50481 39071 ft 485 kts 142°
2026-05-06 01:28 43.65815 17.56385 39066 ft 485 kts 142°
2026-05-06 01:29 43.60607 17.62321 39059 ft 485 kts 142°
2026-05-06 01:29 43.55394 17.68251 39054 ft 485 kts 142°
2026-05-06 01:30 43.50189 17.74157 39057 ft 485 kts 142°
2026-05-06 01:30 43.44982 17.80051 39053 ft 485 kts 142°
2026-05-06 01:31 43.39765 17.85945 39048 ft 485 kts 142°
2026-05-06 01:31 43.34573 17.91795 39052 ft 485 kts 142°
2026-05-06 01:32 43.29339 17.97679 39046 ft 486 kts 142°
2026-05-06 01:32 43.24097 18.03560 39054 ft 486 kts 142°
2026-05-06 01:33 43.18859 18.09423 39059 ft 487 kts 142°
2026-05-06 01:33 43.13603 18.15291 39071 ft 487 kts 142°
2026-05-06 01:34 43.08348 18.21146 39083 ft 487 kts 142°
2026-05-06 01:34 43.03086 18.26994 39087 ft 487 kts 142°
2026-05-06 01:35 42.97816 18.32839 39088 ft 487 kts 142°
2026-05-06 01:35 42.92552 18.38664 39093 ft 488 kts 142°
2026-05-06 01:36 42.87308 18.44453 39095 ft 488 kts 142°
2026-05-06 01:36 42.82023 18.50274 39092 ft 489 kts 142°
2026-05-06 01:37 42.76724 18.56098 39094 ft 489 kts 142°
2026-05-06 01:37 42.71419 18.61915 39098 ft 490 kts 142°
2026-05-06 01:38 42.66108 18.67725 39090 ft 490 kts 142°
2026-05-06 01:38 42.60785 18.73535 39077 ft 490 kts 142°
2026-05-06 01:39 42.55494 18.79298 39093 ft 490 kts 142°
2026-05-06 01:39 42.50172 18.85081 39089 ft 490 kts 142°
2026-05-06 01:40 42.44845 18.90857 39072 ft 490 kts 142°
2026-05-06 01:40 42.39524 18.96612 39074 ft 490 kts 142°
2026-05-06 01:41 42.34198 19.02361 39107 ft 490 kts 142°
2026-05-06 01:41 42.28869 19.08100 39105 ft 490 kts 142°
2026-05-06 01:42 42.23673 19.13684 39086 ft 490 kts 142°
2026-05-06 01:42 42.18324 19.19419 39105 ft 490 kts 142°
2026-05-06 01:43 42.13009 19.25106 39093 ft 491 kts 142°
2026-05-06 01:43 42.07654 19.30822 39097 ft 491 kts 142°
2026-05-06 01:44 42.02302 19.36522 39089 ft 491 kts 142°
2026-05-06 01:44 41.96937 19.42224 39089 ft 492 kts 142°
2026-05-06 01:45 41.91557 19.47929 39093 ft 492 kts 142°
2026-05-06 01:45 41.86181 19.53617 39098 ft 492 kts 142°
2026-05-06 01:46 41.80824 19.59273 39092 ft 493 kts 142°
2026-05-06 01:46 41.75427 19.64958 39102 ft 493 kts 142°
2026-05-06 01:47 41.70022 19.70640 39105 ft 494 kts 142°
2026-05-06 01:47 41.64597 19.76329 39102 ft 495 kts 143°
2026-05-06 01:48 41.59167 19.82012 39106 ft 496 kts 143°
2026-05-06 01:48 41.53716 19.87703 39105 ft 497 kts 143°
2026-05-06 01:49 41.48256 19.93392 39106 ft 498 kts 142°
2026-05-06 01:49 41.42823 19.99041 39103 ft 499 kts 143°
2026-05-06 01:50 41.37346 20.04723 39108 ft 499 kts 143°
2026-05-06 01:50 41.31861 20.10400 39108 ft 499 kts 143°
2026-05-06 01:51 41.26369 20.16072 39114 ft 500 kts 143°
2026-05-06 01:51 41.20874 20.21735 39115 ft 500 kts 143°
2026-05-06 01:52 41.15369 20.27397 39125 ft 500 kts 143°
2026-05-06 01:52 41.09861 20.33048 39115 ft 501 kts 143°
2026-05-06 01:53 41.04341 20.38700 39115 ft 501 kts 143°
2026-05-06 01:53 40.98827 20.44333 39118 ft 501 kts 143°
2026-05-06 01:54 40.93300 20.49967 39123 ft 501 kts 143°
2026-05-06 01:54 40.87810 20.55552 39120 ft 501 kts 143°
2026-05-06 01:55 40.82279 20.61167 39123 ft 502 kts 143°
2026-05-06 01:55 40.76740 20.66777 39124 ft 502 kts 143°
2026-05-06 01:56 40.71191 20.72385 39123 ft 502 kts 143°
2026-05-06 01:56 40.65636 20.77987 39128 ft 503 kts 143°
2026-05-06 01:57 40.60076 20.83584 39132 ft 504 kts 143°
2026-05-06 01:57 40.54499 20.89185 39128 ft 504 kts 143°
2026-05-06 01:58 40.48920 20.94778 39139 ft 505 kts 143°
2026-05-06 01:58 40.43553 21.00734 39133 ft 506 kts 139°
2026-05-06 01:59 40.38272 21.06886 39125 ft 507 kts 139°
2026-05-06 01:59 40.32985 21.13018 39132 ft 508 kts 139°
2026-05-06 02:00 40.27700 21.19096 39121 ft 509 kts 139°
2026-05-06 02:00 40.22358 21.25213 39111 ft 510 kts 139°
2026-05-06 02:01 40.16996 21.31340 39113 ft 511 kts 139°
2026-05-06 02:01 40.11631 21.37461 39111 ft 512 kts 139°
2026-05-06 02:02 40.06259 21.43579 39113 ft 512 kts 139°
2026-05-06 02:02 40.00886 21.49684 39111 ft 512 kts 139°
2026-05-06 02:03 39.95533 21.55753 39103 ft 512 kts 139°
2026-05-06 02:03 39.90140 21.61845 39099 ft 512 kts 139°
2026-05-06 02:04 39.84751 21.67919 39092 ft 513 kts 139°
2026-05-06 02:04 39.79358 21.73987 39085 ft 513 kts 139°
2026-05-06 02:05 39.73957 21.80054 39075 ft 513 kts 139°
2026-05-06 02:05 39.68549 21.86115 39067 ft 513 kts 139°
2026-05-06 02:06 39.63130 21.92176 39064 ft 513 kts 140°
2026-05-06 02:06 39.57720 21.98213 39057 ft 514 kts 140°
2026-05-06 02:07 39.52293 22.04256 39054 ft 514 kts 140°
2026-05-06 02:07 39.46906 22.10241 39052 ft 514 kts 140°
2026-05-06 02:08 39.41480 22.16258 39052 ft 514 kts 140°
2026-05-06 02:08 39.36031 22.22286 39052 ft 514 kts 140°
2026-05-06 02:09 39.30585 22.28299 39053 ft 514 kts 140°
2026-05-06 02:09 39.25142 22.34296 39059 ft 515 kts 140°
2026-05-06 02:10 39.19695 22.40285 39057 ft 515 kts 140°
2026-05-06 02:10 39.14240 22.46270 39053 ft 514 kts 140°
2026-05-06 02:11 39.08784 22.52243 39055 ft 514 kts 140°
2026-05-06 02:11 39.03325 22.58207 39054 ft 514 kts 140°
2026-05-06 02:12 38.97903 22.64117 39056 ft 514 kts 140°
2026-05-06 02:12 38.92455 22.70044 39054 ft 513 kts 140°
2026-05-06 02:13 38.87919 22.74971 39051 ft 513 kts 140°